Dewpoint
55 55 55 55 55 55 55 55 55 55 56 56 56 56 56 56 56 56 56 56 56 56 55 55 56 56 55 56 56 56 56 54 52 51 46 38 47 51 61 61 64 63 61 65 64 58 59 59 56 56 45 46 49 53 60 65 69 66 60 56 53 58 58 60 59 61 64 61 63 64 66 63 61 64 67 66 63 63 63 62 63 63 63 64 65 66 67 68
55 55 55 55 55 55 55 55 55 55 55 56 55 55 56 56 56 56 56 55 56 56 56 55 55 56 56 56 56 56 55 54 50 50 46 47 56 56 61 64 64 65 64 62 57 52 56 55 55 51 48 49 57 55 64 64 67 62 59 56 53 58 62 63 63 63 63 63 64 65 67 63 63 64 65 62 61 61 60 61 62 62 63 65 65 66 67 68
55 55 55 55 55 55 55 55 55 55 55 55 55 55 56 56 56 56 55 55 55 55 56 55 55 55 56 56 56 58 55 50 51 47 36 58 58 59 62 66 69 65 56 54 56 51 45 50 53 52 55 57 57 58 63 66 65 65 58 55 55 63 62 63 65 65 66 65 63 65 66 64 64 66 67 61 61 61 60 60 61 62 63 64 65 66 67 68
55 55 55 55 55 55 55 55 55 56 55 56 56 56 56 56 56 55 55 55 55 55 55 55 55 55 56 56 57 57 54 51 42 41 46 66 64 63 64 63 68 65 43 44 48 51 52 52 52 55 57 57 57 63 61 66 63 64 60 57 57 62 61 64 67 67 66 65 64 65 65 64 65 67 66 62 59 60 60 61 61 62 63 64 65 66 67 67
55 55 54 55 55 55 55 55 56 56 56 56 56 56 56 56 55 55 55 55 55 55 55 55 56 56 56 57 57 54 50 32 28 44 46 71 69 62 67 64 69 54 45 42 46 45 45 53 54 55 53 54 56 61 62 65 64 62 60 61 62 62 63 64 67 66 64 66 64 64 62 63 68 68 64 61 58 58 60 61 62 63 64 64 65 66 67 67
55 54 54 54 55 55 55 55 56 56 55 55 55 55 55 55 55 55 55 55 55 55 55 55 56 56 56 57 55 54 42 21 35 34 70 73 70 63 68 66 68 49 40 41 42 44 46 42 52 49 49 50 52 59 61 63 64 59 60 61 63 62 64 65 66 65 65 64 64 63 65 66 65 64 66 64 61 62 64 62 63 63 64 65 65 66 66 66
54 54 54 55 55 55 55 55 55 55 55 55 55 55 55 55 55 55 55 54 55 55 55 56 56 56 56 57 54 50 31 31 39 37 70 72 67 67 67 65 68 45 36 35 40 44 44 42 46 45 46 49 49 60 63 64 63 60 59 60 61 60 64 66 65 65 65 64 64 66 67 65 63 61 65 65 65 67 65 64 63 64 65 65 65 65 66 66
54 54 54 55 55 55 55 55 55 55 55 55 55 55 55 55 55 55 55 54 55 55 55 56 56 55 57 53 49 34 34 24 24 34 70 66 64 65 67 57 50 40 33 32 37 42 42 45 47 44 45 46 45 54 61 61 62 60 58 60 60 62 65 66 65 66 66 66 67 67 64 65 66 64 65 64 67 64 63 63 64 64 64 65 65 65 65 66
55 54 55 55 55 55 55 55 55 55 55 55 55 55 55 55 54 55 55 55 55 55 56 56 56 56 57 54 39 21 5 27 40 64 65 60 64 63 58 53 41 36 33 34 36 38 44 41 46 47 47 46 45 51 62 59 58 61 60 60 61 64 65 65 65 66 66 66 67 65 64 65 65 68 64 65 68 64 64 64 63 64 64 64 64 65 65 66
55 55 55 55 55 55 55 55 55 55 55 55 55 55 55 54 54 55 55 55 55 55 56 56 56 57 56 52 32 10 8 40 63 66 60 58 60 55 50 51 37 33 32 32 32 38 44 41 45 43 43 42 43 41 61 58 50 60 61 64 64 65 64 65 65 66 66 66 66 64 64 64 65 66 60 66 68 64 63 63 63 63 63 64 64 65 65 66
55 55 55 55 54 55 55 55 55 55 55 55 55 54 54 54 54 54 55 55 55 55 56 57 57 56 50 51 20 14 31 56 58 59 57 58 54 46 46 44 36 32 31 31 30 33 39 41 43 41 42 40 40 36 59 59 57 62 63 64 64 65 64 64 64 65 66 65 67 65 64 65 66 65 62 65 66 64 63 63 63 63 63 64 64 65 65 66
55 55 55 54 54 55 55 55 55 55 55 55 54 54 54 54 54 54 54 54 55 56 57 58 58 54 53 46 29 10 28 56 53 58 56 53 47 46 46 46 35 32 30 29 29 31 35 36 37 41 40 40 38 34 43 57 50 62 61 61 62 62 62 63 63 64 65 64 66 65 62 61 62 63 65 66 67 64 63 63 62 62 63 63 64 65 65 65
55 55 55 54 54 54 55 55 55 55 55 54 54 54 54 54 54 54 54 54 55 57 58 58 58 55 49 23 33 37 40 40 51 53 51 39 36 33 39 44 36 32 28 27 27 27 30 33 34 34 38 38 36 32 30 38 60 60 60 61 60 60 60 63 64 65 63 65 66 65 55 58 61 64 66 68 66 63 63 62 62 62 62 63 64 64 65 65
55 55 55 55 54 55 55 55 55 55 54 54 54 54 54 53 53 54 54 55 56 58 58 58 55 54 44 30 29 36 38 43 47 50 50 43 38 35 30 37 31 25 28 28 32 26 29 32 33 34 38 36 35 38 30 40 59 58 59 58 58 57 57 63 63 65 62 65 66 66 55 58 61 64 66 68 66 62 61 61 61 62 62 63 63 64 64 65
55 55 55 54 55 55 55 55 55 54 54 54 54 53 53 52 53 54 55 56 57 58 58 59 54 50 44 43 42 44 56 43 45 46 48 38 33 33 31 29 31 26 26 28 30 35 34 31 35 36 34 40 39 36 27 37 55 57 54 52 56 54 57 62 63 63 61 63 66 63 55 58 61 63 66 67 66 63 61 61 61 61 62 62 63 63 64 64
55 55 55 55 55 55 55 55 54 54 54 54 53 53 53 53 54 55 56 57 57 58 57 51 52 50 41 35 31 47 47 47 44 45 46 38 34 32 32 25 24 24 23 23 27 29 29 38 32 34 34 31 29 25 37 53 53 46 51 52 54 54 57 59 62 64 64 62 64 63 56 59 60 64 66 67 66 62 61 60 61 61 61 62 62 63 63 64
55 55 55 55 55 55 55 54 54 54 54 53 53 53 53 54 56 57 58 59 58 58 56 50 50 53 24 26 34 37 38 41 46 45 45 42 31 27 28 25 24 22 22 23 33 27 33 32 36 34 27 29 25 26 34 28 40 50 49 53 55 53 56 55 61 64 64 61 60 62 59 59 62 64 65 66 66 62 60 60 60 61 61 61 62 62 63 63
55 55 55 55 55 55 54 54 54 54 54 52 52 52 52 55 57 58 57 58 57 56 55 55 52 40 23 23 25 35 39 38 37 41 43 40 26 30 26 25 28 21 20 26 34 28 34 32 26 26 24 24 24 24 26 29 47 49 48 52 53 55 56 55 56 61 62 62 60 60 59 60 62 64 64 64 65 62 60 60 60 60 61 61 61 62 62 62
55 55 55 55 55 55 54 54 54 54 53 53 53 55 54 55 55 53 52 55 43 37 28 41 39 31 10 17 25 31 32 38 37 41 38 36 34 27 34 30 25 25 30 28 32 27 31 28 25 26 23 23 22 23 25 27 49 50 52 50 53 52 55 54 57 62 62 60 60 60 57 59 61 63 64 64 64 62 59 59 60 60 60 61 61 61 61 62
55 55 55 55 55 55 54 54 54 53 52 50 49 53 51 39 37 41 49 49 43 34 30 32 39 38 32 30 29 30 32 38 36 35 37 40 29 26 29 36 36 35 28 25 32 31 28 29 23 23 23 23 24 24 26 23 36 49 52 50 53 52 52 56 58 62 62 60 59 60 59 60 60 62 63 63 63 62 60 59 60 60 60 60 60 60 60 60
55 55 55 55 54 54 54 54 53 53 52 50 49 43 29 35 32 31 33 41 46 43 37 35 38 33 29 32 34 37 34 35 36 35 34 43 25 24 23 32 34 32 33 33 29 32 28 29 26 23 23 23 23 24 24 22 22 21 30 49 51 52 51 53 58 61 62 58 58 60 59 59 60 62 63 64 62 61 60 59 60 60 59 60 60 59 59 59
55 55 55 54 54 54 54 53 53 52 51 50 49 35 34 38 36 35 33 31 31 39 42 39 40 37 38 38 37 38 39 37 34 34 36 25 23 21 25 30 34 31 34 29 32 26 27 25 25 24 24 24 24 24 23 22 20 21 19 23 26 37 55 58 59 61 61 57 57 59 58 59 60 61 62 63 62 61 60 60 60 62 59 59 59 59 59 58
55 55 55 54 54 53 53 53 52 51 49 49 44 43 40 38 42 41 35 31 30 34 40 40 38 38 38 41 41 38 37 36 31 32 34 29 24 23 29 29 33 32 27 31 31 26 28 25 25 24 23 22 21 20 19 17 16 17 19 21 18 31 52 50 58 60 59 57 58 58 58 59 62 63 63 63 64 64 64 64 64 64 60 58 59 58 58 57
55 55 55 54 54 53 53 52 51 50 49 46 44 41 41 40 40 37 31 29 27 30 31 37 37 39 38 29 34 38 36 35 32 31 47 27 24 30 28 29 29 28 27 28 28 24 25 24 26 24 23 22 22 20 19 18 18 15 16 17 20 47 51 55 57 58 59 59 59 58 57 57 59 59 60 63 64 64 64 64 63 64 65 61 59 59 58 56
55 55 55 54 53 53 52 51 49 47 47 47 46 46 46 45 44 40 31 29 27 26 31 26 37 36 35 34 40 33 32 31 31 32 45 31 30 30 29 31 29 28 27 27 25 26 24 25 24 23 22 22 21 20 18 17 17 12 11 14 17 47 52 58 58 57 56 56 58 55 51 53 59 60 60 60 62 62 64 63 61 62 63 63 58 58 58 58
55 55 55 54 54 53 51 45 45 45 45 41 39 41 43 43 42 37 31 25 16 16 18 20 23 21 24 18 32 29 31 29 31 32 38 33 42 30 30 27 30 27 27 25 24 25 25 27 24 23 22 21 21 20 20 17 14 14 16 13 23 49 57 58 56 55 52 51 56 55 48 47 56 57 59 61 61 61 63 62 61 61 63 63 60 58 58 56
54 54 54 54 53 51 40 35 41 44 35 36 38 42 42 43 44 34 29 23 16 17 19 22 20 17 19 19 27 31 27 28 28 36 33 46 32 37 28 27 27 29 29 29 27 24 25 26 23 23 22 21 20 19 19 15 13 13 12 11 36 56 57 57 55 54 52 57 57 55 49 46 48 55 58 60 60 60 61 61 61 60 62 63 61 60 60 57
54 54 53 52 51 51 46 47 44 37 33 36 45 43 43 46 40 36 28 16 13 19 15 15 19 21 16 15 25 23 27 23 26 28 33 36 35 30 28 27 25 24 28 27 23 25 24 24 23 23 23 21 20 20 21 15 13 14 14 33 49 56 56 56 55 52 54 55 52 54 51 45 44 49 58 59 59 59 59 60 60 60 61 62 62 61 62 59
54 53 53 52 52 50 51 48 45 38 38 45 45 44 43 42 35 31 25 13 14 15 18 15 16 16 17 16 17 19 18 20 16 18 28 32 31 30 28 28 26 26 29 26 24 25 27 24 23 23 21 20 21 21 18 14 15 16 14 32 46 56 56 56 53 52 53 48 49 53 52 44 43 51 57 59 58 58 58 59 60 60 61 61 62 61 63 62
53 53 52 52 49 50 49 50 47 44 48 47 45 44 45 38 32 28 20 9 16 14 14 15 11 11 16 13 13 16 20 19 23 31 31 32 29 26 28 31 29 28 27 25 27 26 26 42 42 22 21 21 21 21 18 14 17 22 15 25 40 46 54 52 48 48 48 43 46 53 53 46 41 51 56 56 56 57 58 59 60 60 61 61 62 61 63 63
52 52 51 51 46 48 50 35 38 46 47 46 45 41 38 34 33 24 15 14 19 14 14 13 10 14 13 11 9 15 18 18 19 30 28 28 27 27 28 25 26 25 24 24 22 21 21 22 28 29 32 25 22 21 20 16 17 17 19 32 45 45 47 47 48 49 43 41 44 53 54 49 41 43 56 58 58 58 58 59 59 59 60 61 62 61 62 63
51 51 51 50 49 52 39 30 36 44 46 46 44 36 34 28 19 17 17 25 12 10 9 9 14 11 14 20 16 17 12 14 19 29 27 26 26 25 25 24 26 23 25 23 24 19 17 20 21 23 48 22 20 19 19 19 17 16 23 36 37 31 42 42 45 44 42 42 43 51 52 49 48 46 52 57 58 58 58 59 59 59 60 60 61 61 62 64
51 50 50 51 52 49 50 45 48 47 47 50 39 34 26 20 14 20 24 19 15 15 12 14 13 10 12 12 13 15 16 13 15 23 24 21 26 25 26 26 26 25 24 29 20 17 17 20 22 22 24 34 20 18 20 16 15 14 14 25 28 34 37 37 39 41 40 43 39 51 52 48 47 45 51 52 56 58 59 59 60 60 59 60 61 61 62 64
50 50 47 51 51 50 50 54 50 48 46 47 35 30 20 16 18 48 31 22 13 18 17 14 13 11 12 11 12 14 13 14 20 20 18 20 19 22 20 18 22 20 20 27 17 17 16 16 18 23 20 26 21 20 19 20 16 14 19 20 25 33 35 34 36 39 41 42 42 50 47 43 43 44 53 53 54 56 59 60 60 60 60 60 61 61 62 63
50 48 49 50 52 52 51 51 49 49 41 35 26 26 18 18 23 19 18 14 14 14 17 18 11 11 10 13 12 13 12 13 16 16 15 16 15 16 23 16 18 22 22 19 24 26 17 19 22 24 25 27 23 23 22 21 19 20 23 25 24 24 34 33 35 40 40 38 43 45 43 45 44 52 56 58 57 56 60 60 61 60 60 61 61 61 61 63
47 48 49 48 50 50 51 51 49 46 35 31 24 21 19 21 17 17 14 15 16 17 17 17 16 11 14 13 18 13 10 14 15 16 16 17 18 17 18 18 18 19 17 21 27 19 26 19 20 23 24 20 23 29 26 22 19 24 22 20 20 25 30 34 40 34 38 37 37 44 45 46 49 50 54 57 58 58 59 59 60 60 61 61 61 61 61 62
48 48 37 41 46 52 51 50 48 43 38 33 23 19 25 25 21 20 46 15 18 19 20 15 16 16 14 13 15 16 12 13 14 17 17 20 16 18 17 17 19 20 20 20 19 21 18 18 19 21 20 21 23 28 27 28 23 24 21 20 29 31 30 29 26 29 31 32 33 44 43 44 42 42 52 56 58 58 59 59 60 61 61 61 61 61 62 63
49 49 49 52 50 49 50 48 42 38 35 31 35 50 40 17 24 20 20 17 20 21 20 20 20 17 19 16 14 16 17 12 15 20 20 19 16 18 18 16 17 22 20 21 20 22 20 17 19 21 21 21 24 27 25 28 27 22 20 25 20 24 22 29 27 25 30 31 35 40 43 44 43 44 52 54 57 58 60 60 60 60 61 61 61 62 62 65
48 38 34 36 42 49 49 47 39 38 32 29 31 25 40 27 25 20 22 17 21 21 20 21 19 21 18 16 16 18 19 13 19 23 20 19 17 21 17 17 18 19 23 21 19 26 25 17 20 22 21 20 24 26 24 24 25 26 24 21 27 27 28 24 25 26 30 31 36 38 40 39 48 49 55 55 57 59 61 61 62 62 61 61 62 63 64 64
36 33 32 36 42 47 49 44 38 31 31 25 27 34 29 23 24 22 19 24 22 21 23 24 24 21 22 22 17 17 19 20 19 21 22 23 17 18 17 18 17 17 25 28 24 24 21 23 18 20 22 22 22 25 23 24 23 24 19 21 23 27 30 25 26 26 34 37 34 36 35 41 48 56 57 57 59 61 61 62 62 63 64 64 65 64 64 65
43 34 34 37 40 42 37 32 31 30 27 29 33 29 27 28 22 19 19 23 24 25 22 27 25 22 23 20 19 21 21 21 20 19 24 20 17 16 18 16 19 18 22 21 23 27 26 25 21 25 19 19 20 24 22 24 24 22 19 20 18 20 22 21 22 28 42 38 36 36 33 37 47 58 58 58 61 62 62 62 62 63 64 64 65 65 65 65
32 30 30 37 43 36 33 29 31 33 27 26 23 26 24 48 19 18 20 22 25 24 28 27 28 26 26 23 21 23 24 23 22 20 20 16 18 15 15 19 18 20 22 21 22 24 28 29 28 23 21 19 20 21 27 25 24 21 16 16 20 22 23 24 20 22 40 42 44 40 38 39 53 58 59 60 62 62 62 62 62 63 64 65 66 66 66 66
37 33 36 44 43 31 29 27 41 39 28 28 32 24 23 20 20 20 18 20 25 24 25 25 26 28 26 25 25 25 22 21 22 23 20 23 16 16 18 19 17 21 20 21 27 27 48 31 29 32 34 35 28 24 27 27 19 15 15 17 15 16 20 21 25 28 40 42 40 37 37 43 55 60 60 62 62 61 61 61 61 62 63 64 65 66 66 66
39 40 42 46 42 32 27 25 24 24 33 35 24 22 21 21 21 20 19 21 24 21 27 24 24 32 28 27 26 27 27 19 22 21 20 23 17 20 20 24 25 22 24 24 27 27 30 33 31 29 22 21 26 26 19 23 26 25 20 21 20 26 28 28 35 40 39 42 42 32 29 42 55 59 61 61 60 60 60 61 62 62 63 64 64 65 65 66
43 41 45 47 43 27 24 26 24 25 24 25 20 18 17 19 21 23 22 23 23 25 27 24 27 29 32 30 30 29 28 19 23 26 18 24 22 27 22 24 33 35 36 38 47 45 30 33 34 25 21 18 17 19 19 20 21 23 26 18 22 32 34 30 29 36 32 39 40 35 37 48 56 59 59 59 59 59 60 60 61 61 62 62 63 64 64 65
38 25 33 35 37 20 32 30 24 23 27 29 25 21 21 20 21 22 24 24 24 24 27 28 29 32 32 30 29 29 28 29 26 29 32 29 29 23 23 26 31 38 53 46 51 43 35 40 37 32 27 25 24 29 31 40 20 16 16 20 20 26 35 33 33 32 29 37 40 40 45 51 53 56 57 58 58 58 59 59 59 60 61 62 62 63 63 64
43 34 34 36 40 25 24 23 28 27 23 29 23 21 20 20 22 22 23 24 25 26 30 31 32 29 30 32 34 29 33 30 30 28 29 31 31 27 31 30 25 41 51 39 44 38 39 31 31 34 28 25 29 33 23 35 19 19 20 20 24 31 36 34 29 27 36 40 35 42 50 51 52 56 57 57 58 58 58 58 59 59 60 61 62 63 63 63
32 36 41 44 21 27 26 26 31 31 34 29 26 24 22 21 20 23 20 22 25 28 26 30 25 29 36 35 35 31 33 32 30 27 31 30 33 29 23 25 25 35 38 24 36 35 33 32 34 35 23 25 27 27 22 17 18 21 20 22 31 41 38 34 38 37 41 35 33 43 51 51 54 56 57 58 58 57 58 58 59 59 60 61 61 61 61 62
41 42 42 47 34 34 29 35 39 34 32 37 39 28 26 24 21 22 20 21 25 27 30 28 24 24 24 34 35 32 32 24 23 31 29 27 28 31 24 27 26 26 23 25 28 40 29 30 41 35 29 24 27 30 28 19 18 19 20 22 25 41 45 44 46 47 43 41 43 51 52 53 55 58 58 57 57 57 57 57 57 57 57 58 59 60 60 61
41 42 43 47 46 44 46 36 33 27 23 34 24 27 27 29 23 22 22 24 28 28 29 24 27 25 24 23 31 27 29 31 28 23 29 27 25 31 29 27 22 27 26 25 28 31 25 27 45 40 42 31 30 33 33 24 22 19 19 21 22 24 47 49 49 50 52 51 52 52 53 53 56 58 57 57 57 56 55 54 53 54 54 55 55 55 55 56
48 47 46 44 40 42 46 39 31 32 26 26 26 29 36 25 26 27 26 27 28 29 31 26 28 29 28 24 25 26 28 35 35 27 26 26 22 25 24 26 28 27 27 28 29 33 27 24 34 37 28 30 32 33 28 24 21 20 19 22 25 22 24 34 45 48 49 50 52 52 51 51 55 57 56 56 55 54 52 51 50 50 50 50 50 51 54 57
49 49 49 46 39 47 38 41 31 27 22 24 32 29 30 27 29 27 24 27 23 30 33 29 31 22 24 23 24 24 21 26 30 26 22 25 25 32 30 26 28 26 27 29 32 33 33 27 25 31 28 30 39 36 28 21 24 23 19 21 26 26 30 46 48 51 51 52 51 49 50 54 56 56 54 54 53 52 50 49 49 49 50 50 51 54 56 56